Bennettsville, SC

10:29 PM EST on February 12, 2016 (GMT -0500)
Marlboro County-Avent

Weather History for KBBP - July, 2013

Change the Weather History Date:

Tuesday, July 9, 2013

  Actual Average (KFLO) Record (KFLO)
Temperature  
Mean Temperature 84 °F 81 °F  
Max Temperature 91 °F 91 °F 104 °F (1977)
Min Temperature 77 °F 71 °F 59 °F (2006)
Degree Days  
Heating Degree Days 0 0  
Month to date heating degree days 0  
Since 1 June heating degree days 1  
Since 1 July heating degree days 0  
Cooling Degree Days 19 16  
Month to date cooling degree days 144  
Year to date cooling degree days 848  
Since 1 June cooling degree days 541  
Growing Degree Days 34 (Base 50)    
Moisture  
Dew Point 73 °F    
Average Humidity 81    
Maximum Humidity 100    
Minimum Humidity 46    
Precipitation  
Precipitation 0.30 in 0.17 in 2.41 in (2010)
Month to date precipitation 1.35  
Year to date precipitation 21.33  
Sea Level Pressure  
Sea Level Pressure 30.14 in    
Wind  
Wind Speed 5 mph (South)    
Max Wind Speed 15 mph    
Max Gust Speed 20 mph    
Visibility 9 miles    
Events Rain , Thunderstorm    
T = Trace of Precipitation, MM = Missing Value Source: NWS Daily Summary

Daily Weather History Graph

Daily Weather History Graph

Search for Another Location

Airport or City:

Trip Planner

Search our weather history database for the weather conditions in past years. The results will help you decide how hot, cold, wet, or windy it might be!

Date:

Astronomy

Jul. 09, 2013 Rise Set
Actual Time 6:13 AM EDT 8:34 PM EDT
Civil Twilight 5:44 AM EDT 9:03 PM EDT
Nautical Twilight 5:08 AM EDT 9:39 PM EDT
Astronomical Twilight 4:29 AM EDT 10:18 PM EDT
Moon 7:31 AM EDT (7/9) 9:17 PM EDT (7/9)
Length of Visible Light 15h 18m
Length of Day
14h 20m
New Moon, 2% of the Moon is Illuminated
Jul 9
New Moon
Jul 15
First Quarter
Jul 22
Full
Jul 29
Last Quarter
Aug 6
New

Hourly Weather History & Observations

Time (EDT) Temp. Heat Index Dew Point Humidity Pressure Visibility Wind Dir Wind Speed Gust Speed Precip Events Conditions
12:15 AM 78.8 °F - 77.0 °F 94% 30.17 in 10.0 mi SSE 3.5 mph - N/A   Mostly Cloudy
12:35 AM 78.8 °F - 77.0 °F 94% 30.16 in 10.0 mi SSE 3.5 mph - N/A   Mostly Cloudy
12:55 AM 78.8 °F - 77.0 °F 94% 30.16 in 10.0 mi South 4.6 mph - N/A   Scattered Clouds
1:15 AM 78.8 °F - 77.0 °F 94% 30.16 in 10.0 mi South 4.6 mph - N/A   Mostly Cloudy
1:35 AM 78.8 °F - 75.2 °F 89% 30.16 in 10.0 mi South 4.6 mph - N/A   Mostly Cloudy
1:55 AM 78.8 °F - 75.2 °F 89% 30.16 in 10.0 mi South 3.5 mph - N/A   Scattered Clouds
2:15 AM 78.8 °F - 75.2 °F 89% 30.16 in 10.0 mi South 4.6 mph - N/A   Scattered Clouds
2:35 AM 78.8 °F - 75.2 °F 89% 30.16 in 10.0 mi South 3.5 mph - N/A   Scattered Clouds
2:55 AM 78.8 °F - 75.2 °F 89% 30.16 in 10.0 mi South 3.5 mph - N/A   Overcast
3:15 AM 78.8 °F - 75.2 °F 89% 30.15 in 10.0 mi South 4.6 mph - N/A   Overcast
3:35 AM 78.8 °F - 75.2 °F 89% 30.15 in 10.0 mi South 4.6 mph - N/A   Overcast
3:55 AM 78.8 °F - 75.2 °F 89% 30.15 in 10.0 mi SSW 4.6 mph - N/A   Overcast
4:15 AM 77.0 °F - 73.4 °F 89% 30.15 in 10.0 mi SSW 5.8 mph - N/A   Mostly Cloudy
4:35 AM 77.0 °F - 73.4 °F 89% 30.16 in 10.0 mi SSW 6.9 mph - N/A   Mostly Cloudy
4:55 AM 77.0 °F - 73.4 °F 89% 30.15 in 10.0 mi SSW 5.8 mph - N/A   Mostly Cloudy
5:15 AM 77.0 °F - 73.4 °F 89% 30.15 in 10.0 mi SSW 6.9 mph - N/A   Mostly Cloudy
5:35 AM 77.0 °F - 73.4 °F 89% 30.15 in 10.0 mi SSW 5.8 mph - N/A   Scattered Clouds
5:55 AM 77.0 °F - 73.4 °F 89% 30.15 in 10.0 mi South 3.5 mph - N/A   Mostly Cloudy
6:15 AM 77.0 °F - 73.4 °F 89% 30.15 in 10.0 mi Calm Calm - N/A   Mostly Cloudy
6:35 AM 77.0 °F - 73.4 °F 89% 30.16 in 10.0 mi South 3.5 mph - N/A   Scattered Clouds
6:55 AM 77.0 °F - 73.4 °F 89% 30.16 in 10.0 mi SSE 3.5 mph - N/A   Mostly Cloudy
7:15 AM 77.0 °F - 73.4 °F 89% 30.16 in 10.0 mi South 4.6 mph - N/A   Overcast
7:35 AM 77.0 °F - 73.4 °F 89% 30.16 in 10.0 mi South 3.5 mph - N/A   Mostly Cloudy
7:55 AM 78.8 °F - 73.4 °F 83% 30.16 in 10.0 mi South 5.8 mph - N/A   Scattered Clouds
8:15 AM 78.8 °F - 73.4 °F 83% 30.16 in 10.0 mi South 3.5 mph - N/A   Scattered Clouds
8:35 AM 78.8 °F - 73.4 °F 83% 30.16 in 10.0 mi South 5.8 mph - N/A   Clear
8:55 AM 80.6 °F 85.4 °F 73.4 °F 79% 30.17 in 10.0 mi South 8.1 mph - N/A   Clear
9:15 AM 80.6 °F 85.4 °F 73.4 °F 79% 30.17 in 10.0 mi SSW 5.8 mph - N/A   Mostly Cloudy
9:35 AM 82.4 °F 88.2 °F 73.4 °F 74% 30.16 in 10.0 mi SSW 5.8 mph - N/A   Mostly Cloudy
9:55 AM 82.4 °F 88.2 °F 73.4 °F 74% 30.17 in 10.0 mi South 5.8 mph - N/A   Mostly Cloudy
10:15 AM 84.2 °F 89.6 °F 71.6 °F 66% 30.17 in 10.0 mi South 5.8 mph - N/A   Mostly Cloudy
10:35 AM 86.0 °F 91.8 °F 71.6 °F 62% 30.17 in 10.0 mi SW 5.8 mph - N/A   Mostly Cloudy
10:55 AM 86.0 °F 90.4 °F 69.8 °F 58% 30.18 in 10.0 mi SSW 6.9 mph - N/A   Scattered Clouds
11:15 AM 86.0 °F 90.4 °F 69.8 °F 58% 30.18 in 10.0 mi SSW 5.8 mph - N/A   Clear
11:35 AM 87.8 °F 92.6 °F 69.8 °F 55% 30.17 in 10.0 mi SSW 8.1 mph - N/A   Clear
11:55 AM 87.8 °F 92.6 °F 69.8 °F 55% 30.17 in 10.0 mi South 6.9 mph - N/A   Scattered Clouds
12:15 PM 87.8 °F 92.6 °F 69.8 °F 55% 30.17 in 10.0 mi SSW 3.5 mph - N/A   Scattered Clouds
12:35 PM 89.6 °F 93.4 °F 68.0 °F 49% 30.16 in 10.0 mi SSW 8.1 mph - N/A   Scattered Clouds
12:55 PM 89.6 °F 93.4 °F 68.0 °F 49% 30.16 in 10.0 mi SSE 5.8 mph - N/A   Scattered Clouds
1:15 PM 89.6 °F 93.4 °F 68.0 °F 49% 30.15 in 10.0 mi SW 8.1 mph - N/A   Clear
1:35 PM 91.4 °F 95.4 °F 68.0 °F 46% 30.14 in 10.0 mi SSW 8.1 mph - N/A   Clear
1:55 PM 91.4 °F 95.4 °F 68.0 °F 46% 30.13 in 10.0 mi SSE 6.9 mph - N/A   Clear
2:15 PM 89.6 °F 93.4 °F 68.0 °F 49% 30.13 in 10.0 mi SSE 8.1 mph - N/A   Scattered Clouds
2:35 PM 89.6 °F 93.4 °F 68.0 °F 49% 30.13 in 10.0 mi SSW 5.8 mph - N/A   Mostly Cloudy
2:55 PM 86.0 °F 93.4 °F 73.4 °F 66% 30.12 in 7.0 mi West 5.8 mph - N/A Rain , Thunderstorm Rain
3:15 PM 84.2 °F 89.6 °F 71.6 °F 66% 30.11 in 5.0 mi Calm Calm - 0.01 in Rain Light Rain
3:35 PM 86.0 °F 91.8 °F 71.6 °F 62% 30.10 in 10.0 mi Calm Calm - 0.01 in   Mostly Cloudy
3:55 PM 86.0 °F 93.4 °F 73.4 °F 66% 30.11 in 7.0 mi SSW 15.0 mph 19.6 mph 0.06 in Rain , Thunderstorm Rain
4:15 PM 82.4 °F 88.2 °F 73.4 °F 74% 30.10 in 10.0 mi SE 9.2 mph - 0.01 in Thunderstorm Thunderstorm
4:35 PM 80.6 °F 84.6 °F 71.6 °F 74% 30.11 in 10.0 mi SSE 8.1 mph - 0.01 in Thunderstorm Thunderstorm
4:55 PM 78.8 °F - 71.6 °F 78% 30.13 in 10.0 mi SW 6.9 mph - 0.01 in Rain , Thunderstorm Light Thunderstorms and Rain
5:15 PM 77.0 °F - 71.6 °F 83% 30.11 in 3.0 mi South 4.6 mph - 0.05 in Rain , Thunderstorm Rain
5:35 PM 77.0 °F - 73.4 °F 89% 30.10 in 10.0 mi SSE 4.6 mph - 0.07 in Rain Rain
5:55 PM 77.0 °F - 71.6 °F 83% 30.08 in 10.0 mi SSW 5.8 mph - 0.07 in Thunderstorm Mostly Cloudy
6:15 PM 77.0 °F - 71.6 °F 83% 30.10 in 10.0 mi SSE 4.6 mph - 0.01 in   Drizzle
6:35 PM 77.0 °F - 73.4 °F 89% 30.11 in 10.0 mi Calm Calm - 0.01 in Rain , Thunderstorm Light Thunderstorms and Rain
6:55 PM 77.0 °F - 73.4 °F 89% 30.11 in 10.0 mi Calm Calm - 0.01 in Rain , Thunderstorm Rain
7:15 PM 77.0 °F - 73.4 °F 89% 30.10 in 10.0 mi SSE 4.6 mph - 0.01 in Rain Light Rain
7:35 PM 77.0 °F - 73.4 °F 89% 30.11 in 5.0 mi Calm Calm - 0.04 in Rain Rain
7:55 PM 77.0 °F - 75.2 °F 94% 30.12 in 5.0 mi NNE 3.5 mph - 0.07 in Rain Rain
8:15 PM 77.0 °F - 75.2 °F 94% 30.12 in 5.0 mi Calm Calm - 0.02 in Rain Rain
8:35 PM 77.0 °F - 75.2 °F 94% 30.11 in 5.0 mi Calm Calm - 0.05 in Rain Light Rain
8:55 PM 77.0 °F - 77.0 °F 100% 30.11 in 10.0 mi Calm Calm - 0.06 in Rain Light Rain
9:15 PM 77.0 °F - 77.0 °F 100% 30.10 in 7.0 mi Calm Calm - 0.01 in Rain Light Rain
9:35 PM 77.0 °F - 75.2 °F 94% 30.09 in 10.0 mi South 4.6 mph - 0.01 in Rain Light Rain
9:55 PM 77.0 °F - 75.2 °F 94% 30.09 in 10.0 mi South 3.5 mph - 0.02 in   Clear
10:15 PM 77.0 °F - 75.2 °F 94% 30.11 in 10.0 mi East 4.6 mph - N/A   Clear
10:35 PM 77.0 °F - 75.2 °F 94% 30.13 in 10.0 mi East 5.8 mph - N/A   Scattered Clouds
10:55 PM 77.0 °F - 77.0 °F 100% 30.15 in 10.0 mi ESE 4.6 mph - N/A   Overcast
11:15 PM 77.0 °F - 77.0 °F 100% 30.14 in 10.0 mi Calm Calm - N/A   Mostly Cloudy
11:35 PM 77.0 °F - 77.0 °F 100% 30.13 in 10.0 mi SE 4.6 mph - N/A Thunderstorm Scattered Clouds
11:55 PM 77.0 °F - 77.0 °F 100% 30.13 in 10.0 mi SSE 5.8 mph - N/A Thunderstorm Thunderstorm